Volver al catálogo

QIANFAN-78

ActivoComunicacionesPO
NORAD 63164·PAYLOAD·🇨🇳 China

Lanzado Mar 11, 2025 desde Wenchang Space Launch Site

Loading…

Próximos Pases (próximas 24 horas)

TLE

ActualizadoSource: Space-Track

Época: Sep 14, 2026, 13:44 UTC

1 63164U 25046F   26257.57267641  .00000061  00000-0  76201-4 0  9994
2 63164  88.9652 291.3544 0016644  57.6514 302.6246 13.51011867 84678

Sigue QIANFAN-78 en tiempo real con AllMySat

Download on the App Store